• In Hungary
  • List of Countries
  • For 7 days
  • Water Temperature
  • Satellite Maps
  • Weather Map
  • News
  • Weather Widgets
  • user-avatar
    Login

    Hourly Weather Ibb

    Today, 19 September, Wednesday

    Time Temperature Precipitation Wind Pressure Humidity
    00:00 +21°C° 0.1 mm 1 mps 596 mmHg 62%
    01:00 +21°C° 0 mm 1 mps 596 mmHg 61%
    02:00 +21°C° 0 mm 1 mps 596 mmHg 59%
    03:00 +21°C° 0 mm 1 mps 595 mmHg 58%
    04:00 +20°C° 0 mm 1 mps 595 mmHg 57%
    05:00 +20°C° 0 mm 1 mps 595 mmHg 55%
    06:00 +20°C° 0 mm 1 mps 595 mmHg 54%
    07:00 +21°C° 0 mm 1 mps 596 mmHg 46%
    08:00 +23°C° 0 mm 1 mps 597 mmHg 38%
    09:00 +25°C° 0 mm 1 mps 598 mmHg 30%
    10:00 +26°C° 0 mm 2 mps 598 mmHg 29%
    11:00 +27°C° 0 mm 3 mps 598 mmHg 28%
    12:00 +28°C° 0 mm 3 mps 598 mmHg 26%
    13:00 +27°C° 0.3 mm 4 mps 598 mmHg 31%
    14:00 +27°C° 0.3 mm 4 mps 597 mmHg 35%
    15:00 +26°C° 0.3 mm 4 mps 596 mmHg 40%
    16:00 +25°C° 2.1 mm 4 mps 596 mmHg 45%
    17:00 +24°C° 2.1 mm 3 mps 596 mmHg 51%
    18:00 +22°C° 2.1 mm 3 mps 595 mmHg 57%
    19:00 +21°C° 0.6 mm 2 mps 595 mmHg 60%
    20:00 +21°C° 0.6 mm 2 mps 595 mmHg 63%
    21:00 +21°C° 0.6 mm 1 mps 595 mmHg 66%
    22:00 +21°C° 0.1 mm 1 mps 595 mmHg 65%
    23:00 +21°C° 0.1 mm 1 mps 595 mmHg 64%

    Tomorrow, 20 September, Thursday

    Time Temperature Precipitation Wind Pressure Humidity
    00:00 +21°C° 0.1 mm 1 mps 595 mmHg 63%
    01:00 +21°C° 0 mm 1 mps 595 mmHg 62%
    02:00 +21°C° 0 mm 1 mps 595 mmHg 61%
    03:00 +20°C° 0 mm 1 mps 594 mmHg 61%
    04:00 +20°C° 0 mm 1 mps 594 mmHg 60%
    05:00 +20°C° 0 mm 1 mps 595 mmHg 60%
    06:00 +19°C° 0 mm 1 mps 595 mmHg 60%
    07:00 +21°C° 0 mm 1 mps 596 mmHg 51%
    08:00 +23°C° 0 mm 1 mps 597 mmHg 43%
    09:00 +25°C° 0 mm 1 mps 598 mmHg 34%
    10:00 +26°C° 0 mm 2 mps 598 mmHg 32%
    11:00 +27°C° 0 mm 3 mps 598 mmHg 30%
    12:00 +28°C° 0 mm 4 mps 598 mmHg 28%
    13:00 +27°C° 0.6 mm 4 mps 597 mmHg 32%
    14:00 +27°C° 0.6 mm 4 mps 596 mmHg 35%
    15:00 +26°C° 0.6 mm 4 mps 596 mmHg 39%
    16:00 +25°C° 2.5 mm 4 mps 595 mmHg 45%
    17:00 +24°C° 2.5 mm 3 mps 595 mmHg 50%
    18:00 +22°C° 2.5 mm 3 mps 594 mmHg 56%
    19:00 +23°C° 1.3 mm 2 mps 595 mmHg 57%
    20:00 +21°C° 1.3 mm 2 mps 595 mmHg 59%
    21:00 +21°C° 1.3 mm 2 mps 596 mmHg 60%
    22:00 +22°C° 0.1 mm 1 mps 595 mmHg 60%
    23:00 +21°C° 0.1 mm 1 mps 595 mmHg 60%

    Day after tomorrow, 21 September, Friday

    Time Temperature Precipitation Wind Pressure Humidity
    00:00 +21°C° 0.1 mm 1 mps 595 mmHg 60%
    01:00 +21°C° 0 mm 1 mps 595 mmHg 58%
    02:00 +20°C° 0 mm 1 mps 594 mmHg 57%
    03:00 +20°C° 0 mm 1 mps 594 mmHg 56%
    04:00 +20°C° 0 mm 1 mps 594 mmHg 54%
    05:00 +19°C° 0 mm 1 mps 594 mmHg 51%
    06:00 +19°C° 0 mm 1 mps 594 mmHg 49%
    07:00 +20°C° 0 mm 2 mps 596 mmHg 41%
    08:00 +22°C° 0 mm 3 mps 597 mmHg 32%
    09:00 +26°C° 0 mm 3 mps 598 mmHg 23%
    10:00 +26°C° 0 mm 4 mps 599 mmHg 21%
    11:00 +27°C° 0 mm 4 mps 599 mmHg 19%
    12:00 +28°C° 0 mm 4 mps 599 mmHg 17%
    13:00 +28°C° 0 mm 4 mps 598 mmHg 20%
    14:00 +28°C° 0 mm 5 mps 597 mmHg 24%
    15:00 +28°C° 0 mm 5 mps 597 mmHg 27%
    16:00 +27°C° 0.9 mm 4 mps 596 mmHg 34%
    17:00 +25°C° 0.9 mm 4 mps 596 mmHg 40%
    18:00 +24°C° 0.9 mm 3 mps 595 mmHg 46%
    19:00 +22°C° 0.3 mm 3 mps 596 mmHg 49%
    20:00 +23°C° 0.3 mm 2 mps 596 mmHg 53%
    21:00 +21°C° 0.3 mm 2 mps 596 mmHg 56%
    22:00 +22°C° 0 mm 1 mps 596 mmHg 57%
    23:00 +22°C° 0 mm 1 mps 596 mmHg 58%

    22 September, Saturday

    Time Temperature Precipitation Wind Pressure Humidity
    00:00 +21°C° 0 mm 1 mps 595 mmHg 59%
    01:00 +21°C° 0 mm 1 mps 595 mmHg 58%
    02:00 +21°C° 0 mm 1 mps 595 mmHg 57%
    03:00 +20°C° 0 mm 1 mps 594 mmHg 56%
    04:00 +20°C° 0 mm 1 mps 595 mmHg 55%
    05:00 +20°C° 0 mm 1 mps 595 mmHg 54%
    06:00 +19°C° 0 mm 1 mps 595 mmHg 53%
    07:00 +21°C° 0 mm 1 mps 596 mmHg 44%
    08:00 +23°C° 0 mm 2 mps 597 mmHg 35%
    09:00 +25°C° 0 mm 3 mps 599 mmHg 27%
    10:00 +26°C° 0 mm 3 mps 599 mmHg 25%
    11:00 +27°C° 0 mm 4 mps 599 mmHg 23%
    12:00 +28°C° 0 mm 5 mps 599 mmHg 21%
    13:00 +28°C° 0.1 mm 5 mps 598 mmHg 24%
    14:00 +28°C° 0.1 mm 5 mps 597 mmHg 28%
    15:00 +27°C° 0.1 mm 5 mps 597 mmHg 31%
    16:00 +26°C° 0.3 mm 5 mps 596 mmHg 36%
    17:00 +25°C° 0.3 mm 4 mps 596 mmHg 40%
    18:00 +24°C° 0.3 mm 3 mps 596 mmHg 45%
    19:00 +22°C° 0 mm 3 mps 596 mmHg 49%
    20:00 +21°C° 0 mm 2 mps 596 mmHg 53%
    21:00 +21°C° 0 mm 2 mps 597 mmHg 57%
    22:00 +21°C° 0 mm 1 mps 596 mmHg 60%
    23:00 +21°C° 0 mm 1 mps 596 mmHg 62%

    23 September, Sunday

    Time Temperature Precipitation Wind Pressure Humidity
    00:00 +21°C° 0 mm 1 mps 596 mmHg 64%
    01:00 +20°C° 0 mm 1 mps 595 mmHg 63%
    02:00 +20°C° 0 mm 1 mps 595 mmHg 63%
    03:00 +19°C° 0 mm 1 mps 595 mmHg 63%
    04:00 +19°C° 0 mm 1 mps 595 mmHg 59%
    05:00 +19°C° 0 mm 1 mps 595 mmHg 55%
    06:00 +19°C° 0 mm 1 mps 595 mmHg 52%
    07:00 +20°C° 0 mm 2 mps 597 mmHg 42%
    08:00 +22°C° 0 mm 3 mps 598 mmHg 32%
    09:00 +25°C° 0 mm 4 mps 599 mmHg 22%
    10:00 +26°C° 0 mm 5 mps 599 mmHg 20%
    11:00 +27°C° 0 mm 5 mps 599 mmHg 18%
    12:00 +28°C° 0 mm 6 mps 599 mmHg 15%
    13:00 +28°C° 0 mm 5 mps 598 mmHg 17%
    14:00 +28°C° 0 mm 5 mps 598 mmHg 19%
    15:00 +28°C° 0 mm 5 mps 597 mmHg 20%
    16:00 +27°C° 0 mm 4 mps 597 mmHg 27%
    17:00 +26°C° 0 mm 4 mps 597 mmHg 33%
    18:00 +24°C° 0 mm 3 mps 596 mmHg 39%
    19:00 +22°C° 0.1 mm 3 mps 597 mmHg 44%
    20:00 +23°C° 0.1 mm 2 mps 597 mmHg 49%
    21:00 +22°C° 0.1 mm 1 mps 597 mmHg 54%
    22:00 +21°C° 0 mm 1 mps 596 mmHg 57%
    23:00 +21°C° 0 mm 1 mps 596 mmHg 60%

    24 September, Monday

    Time Temperature Precipitation Wind Pressure Humidity
    00:00 +21°C° 0 mm 1 mps 596 mmHg 62%
    01:00 +20°C° 0 mm 1 mps 595 mmHg 62%
    02:00 +20°C° 0 mm 1 mps 595 mmHg 62%
    03:00 +20°C° 0 mm 1 mps 595 mmHg 62%
    04:00 +19°C° 0 mm 1 mps 595 mmHg 60%
    05:00 +19°C° 0 mm 1 mps 595 mmHg 57%
    06:00 +19°C° 0 mm 1 mps 595 mmHg 54%
    07:00 +21°C° 0 mm 1 mps 596 mmHg 44%
    08:00 +23°C° 0 mm 2 mps 597 mmHg 35%
    09:00 +25°C° 0 mm 2 mps 598 mmHg 25%
    10:00 +26°C° 0 mm 3 mps 598 mmHg 23%
    11:00 +27°C° 0 mm 3 mps 598 mmHg 20%
    12:00 +28°C° 0 mm 4 mps 598 mmHg 18%
    13:00 +28°C° 0 mm 4 mps 598 mmHg 20%
    14:00 +28°C° 0 mm 5 mps 597 mmHg 22%
    15:00 +28°C° 0 mm 5 mps 597 mmHg 24%
    16:00 +27°C° 0 mm 5 mps 596 mmHg 28%
    17:00 +26°C° 0 mm 4 mps 596 mmHg 33%
    18:00 +24°C° 0 mm 3 mps 596 mmHg 37%
    19:00 +24°C° 0 mm 3 mps 596 mmHg 40%
    20:00 +23°C° 0 mm 2 mps 596 mmHg 43%
    21:00 +21°C° 0 mm 2 mps 596 mmHg 47%
    22:00 +22°C° 0 mm 1 mps 596 mmHg 47%
    23:00 +21°C° 0 mm 1 mps 595 mmHg 48%
    Show more